User: anonymous   Login
Location: Hoyos del Collado
(40.3594°N, 5.2003°W)
Time: 14:38:07
(UTC+00:00)
Language:

IRS-1C Rocket - Orbit

View from above orbital plane
View from above orbital plane
View from above satellite
View from above satellite

Ground track
Ground track

The orbit data is extracted from the following two-line orbital elements,

1 23753U 95072C   24165.77765579  .00000103  00000-0  61306-4 0  9998
2 23753  98.7999 225.1696 0004719  71.6994 288.4699 14.26753915481328
Epoch (UTC): 13 June 2024 18:39:49
Eccentricity: 0.0004719
inclination: 98.7999°
perigee height: 799 km
apogee height: 806 km
right ascension of ascending node: 225.1696°
argument of perigee: 71.6994°
revolutions per day: 14.26753915
mean anomaly at epoch: 288.4699°
orbit number at epoch: 48132

The dashed part of the orbit path shows where the satellite is in the earth's shadow,  

DLR